When you browse on this site, cookies collect data to enhance your experience and personalize the content and advertising you see.
Visit our Privacy Policy to learn more. By continuing to use the site, you agree to this use of cookies and data.
  • In Austria
  • List of Countries
  • For 7 days
  • Water Temperature
  • Satellite Maps
  • Weather Map
  • News
  • Weather Widgets
  • user-avatar
    Login

    Hourly Weather Troy

    Today, 21 July, Sunday

    Time Temperature Precipitation Wind Pressure Humidity
    00:00 +26°C° 0 mm 3 mps 737 mmHg 93%
    01:00 +26°C° 0 mm 3 mps 737 mmHg 94%
    02:00 +26°C° 0 mm 3 mps 737 mmHg 94%
    03:00 +26°C° 0 mm 3 mps 737 mmHg 95%
    04:00 +26°C° 0.2 mm 3 mps 737 mmHg 95%
    05:00 +26°C° 0.2 mm 2 mps 737 mmHg 94%
    06:00 +27°C° 0 mm 1 mps 738 mmHg 91%
    07:00 +28°C° 0.6 mm 1 mps 738 mmHg 86%
    08:00 +30°C° 0.6 mm 2 mps 738 mmHg 81%
    09:00 +31°C° 0.6 mm 2 mps 737 mmHg 76%
    10:00 +31°C° 0 mm 2 mps 737 mmHg 74%
    11:00 +32°C° 0 mm 2 mps 737 mmHg 71%
    12:00 +34°C° 0 mm 3 mps 737 mmHg 69%
    13:00 +34°C° 0.4 mm 3 mps 737 mmHg 71%
    14:00 +33°C° 0.4 mm 3 mps 736 mmHg 73%
    15:00 +33°C° 0.4 mm 3 mps 736 mmHg 74%
    16:00 +31°C° 2 mm 3 mps 736 mmHg 78%
    17:00 +30°C° 2 mm 3 mps 736 mmHg 81%
    18:00 +28°C° 2 mm 2 mps 736 mmHg 85%
    19:00 +27°C° 0.4 mm 2 mps 736 mmHg 86%
    20:00 +27°C° 0.4 mm 2 mps 736 mmHg 88%
    21:00 +26°C° 0.4 mm 1 mps 736 mmHg 89%
    22:00 +26°C° 0.6 mm 1 mps 736 mmHg 90%
    23:00 +25°C° 0.6 mm 2 mps 735 mmHg 91%

    Tomorrow, 22 July, Monday

    Time Temperature Precipitation Wind Pressure Humidity
    00:00 +25°C° 0.6 mm 2 mps 735 mmHg 91%
    01:00 +25°C° 0.1 mm 2 mps 735 mmHg 93%
    02:00 +24°C° 0.1 mm 2 mps 735 mmHg 94%
    03:00 +24°C° 0.1 mm 2 mps 734 mmHg 96%
    04:00 +22°C° 0.6 mm 3 mps 735 mmHg 96%
    05:00 +22°C° 0.6 mm 3 mps 735 mmHg 96%
    06:00 +21°C° 0.6 mm 4 mps 735 mmHg 96%
    07:00 +21°C° 0.3 mm 5 mps 735 mmHg 95%
    08:00 +21°C° 0.3 mm 5 mps 736 mmHg 94%
    09:00 +21°C° 0.3 mm 6 mps 736 mmHg 93%
    10:00 +21°C° 0.9 mm 5 mps 736 mmHg 94%
    11:00 +20°C° 0.9 mm 5 mps 736 mmHg 94%
    12:00 +20°C° 0.9 mm 5 mps 736 mmHg 95%
    13:00 +20°C° 0.2 mm 4 mps 736 mmHg 94%
    14:00 +20°C° 0.2 mm 4 mps 736 mmHg 93%
    15:00 +20°C° 0.2 mm 4 mps 736 mmHg 92%
    16:00 +21°C° 0.1 mm 3 mps 737 mmHg 92%
    17:00 +21°C° 0.1 mm 3 mps 737 mmHg 91%
    18:00 +21°C° 0.1 mm 3 mps 737 mmHg 91%
    19:00 +20°C° 0 mm 3 mps 738 mmHg 91%
    20:00 +19°C° 0 mm 3 mps 738 mmHg 92%
    21:00 +17°C° 0 mm 3 mps 739 mmHg 93%
    22:00 +17°C° 0 mm 2 mps 739 mmHg 93%
    23:00 +16°C° 0 mm 2 mps 739 mmHg 93%

    Day after tomorrow, 23 July, Tuesday

    Time Temperature Precipitation Wind Pressure Humidity
    00:00 +16°C° 0 mm 2 mps 739 mmHg 92%
    01:00 +16°C° 0 mm 2 mps 739 mmHg 93%
    02:00 +15°C° 0 mm 2 mps 739 mmHg 93%
    03:00 +15°C° 0 mm 2 mps 739 mmHg 93%
    04:00 +14°C° 0 mm 3 mps 739 mmHg 92%
    05:00 +14°C° 0 mm 3 mps 740 mmHg 91%
    06:00 +14°C° 0 mm 3 mps 740 mmHg 90%
    07:00 +17°C° 0 mm 3 mps 740 mmHg 83%
    08:00 +19°C° 0 mm 4 mps 740 mmHg 76%
    09:00 +21°C° 0 mm 4 mps 740 mmHg 69%
    10:00 +21°C° 0 mm 4 mps 740 mmHg 68%
    11:00 +22°C° 0 mm 4 mps 740 mmHg 66%
    12:00 +23°C° 0 mm 4 mps 740 mmHg 64%
    13:00 +23°C° 0 mm 4 mps 740 mmHg 65%
    14:00 +23°C° 0 mm 4 mps 740 mmHg 65%
    15:00 +25°C° 0 mm 4 mps 739 mmHg 66%
    16:00 +24°C° 0.3 mm 3 mps 739 mmHg 72%
    17:00 +22°C° 0.3 mm 3 mps 740 mmHg 78%
    18:00 +21°C° 0.3 mm 3 mps 740 mmHg 84%
    19:00 +20°C° 0 mm 2 mps 740 mmHg 86%
    20:00 +18°C° 0 mm 2 mps 740 mmHg 89%
    21:00 +17°C° 0 mm 2 mps 740 mmHg 91%
    22:00 +17°C° 0 mm 2 mps 740 mmHg 92%
    23:00 +16°C° 0 mm 2 mps 740 mmHg 93%

    24 July, Wednesday

    Time Temperature Precipitation Wind Pressure Humidity
    00:00 +16°C° 0 mm 2 mps 740 mmHg 94%
    01:00 +16°C° 0 mm 2 mps 740 mmHg 95%
    02:00 +15°C° 0 mm 2 mps 740 mmHg 95%
    03:00 +15°C° 0 mm 1 mps 740 mmHg 96%
    04:00 +15°C° 0 mm 1 mps 741 mmHg 96%
    05:00 +16°C° 0 mm 2 mps 741 mmHg 95%
    06:00 +16°C° 0 mm 2 mps 741 mmHg 95%
    07:00 +18°C° 0 mm 2 mps 742 mmHg 89%
    08:00 +20°C° 0 mm 2 mps 742 mmHg 84%
    09:00 +23°C° 0 mm 2 mps 742 mmHg 78%
    10:00 +24°C° 0.1 mm 2 mps 742 mmHg 74%
    11:00 +24°C° 0.1 mm 2 mps 742 mmHg 70%
    12:00 +25°C° 0.1 mm 2 mps 742 mmHg 65%
    13:00 +26°C° 0.1 mm 2 mps 741 mmHg 66%
    14:00 +26°C° 0.1 mm 2 mps 741 mmHg 66%
    15:00 +26°C° 0.1 mm 2 mps 741 mmHg 66%
    16:00 +25°C° 0 mm 2 mps 741 mmHg 69%
    17:00 +24°C° 0 mm 2 mps 741 mmHg 72%
    18:00 +23°C° 0 mm 1 mps 741 mmHg 76%
    19:00 +22°C° 0 mm 1 mps 741 mmHg 78%
    20:00 +20°C° 0 mm 1 mps 741 mmHg 79%
    21:00 +19°C° 0 mm 1 mps 741 mmHg 81%
    22:00 +18°C° 0 mm 1 mps 741 mmHg 83%
    23:00 +18°C° 0 mm 1 mps 741 mmHg 85%

    25 July, Thursday

    Time Temperature Precipitation Wind Pressure Humidity
    00:00 +16°C° 0 mm 1 mps 741 mmHg 86%
    01:00 +16°C° 0 mm 1 mps 741 mmHg 87%
    02:00 +16°C° 0 mm 1 mps 742 mmHg 87%
    03:00 +16°C° 0 mm 1 mps 742 mmHg 87%
    04:00 +18°C° 0 mm 1 mps 742 mmHg 87%
    05:00 +18°C° 0 mm 1 mps 742 mmHg 86%
    06:00 +19°C° 0 mm 1 mps 743 mmHg 85%
    07:00 +21°C° 0 mm 1 mps 743 mmHg 81%
    08:00 +22°C° 0 mm 1 mps 743 mmHg 77%
    09:00 +24°C° 0 mm 1 mps 743 mmHg 73%
    10:00 +25°C° 0 mm 1 mps 743 mmHg 70%
    11:00 +25°C° 0 mm 1 mps 743 mmHg 67%
    12:00 +26°C° 0 mm 1 mps 743 mmHg 63%
    13:00 +27°C° 0 mm 1 mps 743 mmHg 63%
    14:00 +27°C° 0 mm 1 mps 743 mmHg 62%
    15:00 +27°C° 0 mm 1 mps 742 mmHg 62%
    16:00 +24°C° 0 mm 0 mps 743 mmHg 66%
    17:00 +24°C° 0 mm 0 mps 743 mmHg 70%
    18:00 +23°C° 0 mm 0 mps 743 mmHg 75%
    19:00 +21°C° 0 mm 0 mps 743 mmHg 77%
    20:00 +22°C° 0 mm 1 mps 743 mmHg 80%
    21:00 +20°C° 0 mm 1 mps 743 mmHg 82%
    22:00 +20°C° 0 mm 1 mps 743 mmHg 83%
    23:00 +19°C° 0 mm 1 mps 743 mmHg 84%

    26 July, Friday

    Time Temperature Precipitation Wind Pressure Humidity
    00:00 +19°C° 0 mm 1 mps 743 mmHg 85%
    01:00 +18°C° 0 mm 1 mps 743 mmHg 85%
    02:00 +18°C° 0 mm 1 mps 743 mmHg 85%
    03:00 +18°C° 0 mm 1 mps 743 mmHg 86%
    04:00 +18°C° 0 mm 1 mps 744 mmHg 85%
    05:00 +19°C° 0 mm 1 mps 744 mmHg 85%
    06:00 +19°C° 0 mm 1 mps 744 mmHg 85%
    07:00 +21°C° 0 mm 1 mps 745 mmHg 79%
    08:00 +23°C° 0 mm 1 mps 745 mmHg 74%
    09:00 +25°C° 0 mm 1 mps 745 mmHg 69%
    10:00 +26°C° 0 mm 1 mps 745 mmHg 66%
    11:00 +27°C° 0 mm 2 mps 745 mmHg 63%
    12:00 +28°C° 0 mm 2 mps 745 mmHg 60%
    13:00 +28°C° 0 mm 2 mps 745 mmHg 61%
    14:00 +28°C° 0 mm 2 mps 745 mmHg 62%
    15:00 +29°C° 0 mm 2 mps 744 mmHg 63%
    16:00 +28°C° 0 mm 2 mps 744 mmHg 68%
    17:00 +27°C° 0 mm 1 mps 744 mmHg 72%
    18:00 +26°C° 0 mm 1 mps 744 mmHg 77%
    19:00 +25°C° 0 mm 1 mps 744 mmHg 80%
    20:00 +23°C° 0 mm 1 mps 744 mmHg 83%
    21:00 +22°C° 0 mm 1 mps 745 mmHg 85%
    22:00 +22°C° 0 mm 1 mps 745 mmHg 86%
    23:00 +21°C° 0 mm 1 mps 745 mmHg 87%
    Show more